Long Lake, NY

11:27 AM EDT on July 24, 2017 (GMT -0400)
Plumley's Garage | | Change Station

Elev 1650 ft 43.97 °N, 74.42 °W | Updated 8 seconds ago

Rain
Rain
55.8 °F
Feels Like 55.8 °F
N
0.0
Wind Variable Wind from SE
Gusts 0.0 mph

Today
High -- | Low -- °F
--% Chance of Precip.
Yesterday
High -- | Low -- °F
Precip. -- in
Pressure 29.89 in
Visibility 5.0 miles
Clouds Few 4600 ft
Mostly Cloudy 5500 ft
Overcast 8500 ft
Dew Point 56 °F
Humidity 99%
Rainfall 0.11 in
Snow Depth Not available.
5:37 AM 8:29 PM
New Moon, 2% visible
METAR KSLK 241451Z AUTO 15007KT 5SM -RA BR FEW046 BKN055 OVC085 14/14 A2989 RMK AO2 SLP120 P0005 60029 T01440144 53006
Pressure 29.89 in
Visibility 5.0 miles
Clouds Few 4600 ft
Mostly Cloudy 5500 ft
Overcast 8500 ft
Dew Point 56 °F
Humidity 99%
Rainfall 0.11 in
Snow Depth Not available.
5:37 AM 8:29 PM
New Moon, 2% visible
METAR KSLK 241451Z AUTO 15007KT 5SM -RA BR FEW046 BKN055 OVC085 14/14 A2989 RMK AO2 SLP120 P0005 60029 T01440144 53006

Get Severe Weather Alerts

Thanks for signing up!

Be on the lookout for a verification email in your inbox.

You'll start receiving the daily forecast at 6 AM.

×

10-Day Weather Forecast

Almanac

Astronomy

Jul. 24, 2017 Rise Set
Actual Time
Civil Twilight
Nautical Twilight
Astronomical Twilight
Moon
Length of Visible Light
Length of Day
Tomorrow will be .
, % of the Moon is Illuminated

Today's Extremes

State Highs State Lows

Community

WunderPhotos

Category 6

Welcome to Category 6. This is the collective home for Weather Underground's featured writeups by Dr. Jeff Masters (right), Bob Henson (left), Chris Burt, and other regular contributors.

Nearby

Air Quality

  Air Quality AQ Index Pollutant
Not available.

Snow Depth

Station Depth Elevation

Earthquake Activity

City Distance Mag. Time & Date
Minimum magnitude displayed is 2.5.

Coastal Water Temperatures

Place Temperature

Stations

Nearby Weather Stations

Station Location Temp. Windchill Dew Point Humidity Wind Precip. Elev Updated Type
                   

Watches & Warnings

There are currently no watches in effect.